User: anonymous   Login
Location: Unspecified
(0.0000°N, 0.0000°E)
Time: 05:26:25
(UTC+00:00)
Language:

Chandra X-Ray Observatory - Orbit

View from above orbital plane
View from above orbital plane
View from above satellite
View from above satellite

Ground track
Ground track

The orbit data is extracted from the following two-line orbital elements,

1 25867U 99040B   18322.66788338 +.00000754 +00000-0 +00000-0 0  9991
2 25867 069.9789 279.9346 6979356 238.5862 000.4815 00.37805244006879
Epoch (UTC): 18 November 2018 16:01:45
Eccentricity: 0.6979356
inclination: 69.9789°
perigee height: 18026 km
apogee height: 130799 km
right ascension of ascending node: 279.9346°
argument of perigee: 238.5862°
revolutions per day: 0.37805244
mean anomaly at epoch: 0.4815°
orbit number at epoch: 687

The dashed part of the orbit path shows where the satellite is in the earth's shadow,  

DLR